Location: Artigues
(43.0756°N, 0.0025°E)
Time: 09:17:20
(UTC+00:00)

Daily predictions for brighter satellites

Satellite Brightness Start Highest point End
(mag) Time Altitude Azimuth Time Altitude Azimuth Time Altitude Azimuth
BREEZE M DEB (TANK) 4.2 16:37:01 10° WNW 16:54:21 60° N 16:58:43 10° E
CORIOLIS 4.4 16:49:37 10° SE 16:54:43 48° ENE 16:59:50 10° N
CZ-2D R/B 4.0 16:54:48 10° ESE 16:57:13 21° ENE 16:59:39 10° NNE
SL-16 R/B 2.7 16:52:26 10° NNE 16:58:42 84° WNW 17:04:54 10° SSW
Cosmos 44 3.5 16:53:51 10° NNW 16:59:09 78° NE 17:04:31 10° SE
Cosmos 1455 Rocket 3.3 16:54:53 10° SSW 16:59:10 73° W 17:03:32 10° N
Cosmos 2151 4.4 16:57:54 10° NNE 17:00:31 16° ENE 17:03:08 10° ESE
Lacrosse 5 rocket 1.3 16:58:54 10° SW 17:02:39 66° NW 17:06:21 10° NE
Cosmos 1782 3.6 16:59:38 10° SSE 17:02:42 27° E 17:05:47 10° NNE
Meteor 1-28 Rocket 3.0 17:00:32 10° N 17:03:55 81° WNW 17:07:14 10° SSW
Cosmos 1697 Rocket 4.4 17:06:03 10° ESE 17:08:32 13° E 17:11:01 10° ENE
Cosmos 1743 3.8 17:06:46 10° NNE 17:09:02 17° ENE 17:11:17 10° ESE
Cosmos 1570 Rocket 4.4 17:04:28 10° N 17:09:32 41° ENE 17:14:31 10° SE
NOSS 2-2 (C) 2.8 17:07:33 10° SW 17:11:02 81° NW 17:14:04 10° NE
YAOGAN 1 4.1 17:14:42 10° E 17:17:09 15° ENE 17:19:38 10° NNE
SMAP 3.0 17:13:04 10° SSE 17:17:41 71° ENE 17:22:21 10° N
COSMO-SKYMED 1 4.1 17:19:06 13° ENE 17:20:31 15° E 17:22:55 10° SE
Lacrosse 4 Rocket 2.6 17:20:29 10° SW 17:24:19 38° NW 17:28:06 10° NNE
Landsat 7 3.7 17:19:57 10° SSE 17:24:31 63° ENE 17:29:08 10° N
BREEZE-M DEB (TANK) 3.9 17:21:52 10° WNW 17:24:39 38° N 17:30:10 14° ENE
ATLAS CENTAUR R/B 2.4 17:26:08 10° N 17:28:16 16° NE 17:28:21 16° NE
IRS-1C 4.1 17:29:05 10° SSE 17:34:22 78° ENE 17:39:43 10° NNW
AQUARIUS 4.1 17:30:05 10° SSE 17:34:24 58° ENE 17:38:44 10° N
SPOT 1/Viking Rocket 4.0 17:29:54 10° SE 17:34:39 37° ENE 17:39:25 10° N
MOS 1 Rocket 3.4 17:31:24 10° SSE 17:35:59 56° ENE 17:40:53 10° N
Cosmos 1758 Rocket 3.4 17:33:29 10° N 17:37:48 69° E 17:42:03 10° SSE
Cosmos 2098 Rocket 2.7 17:34:24 10° S 17:37:57 64° E 17:42:11 10° NNE
ARIANE 5 R/B 2.4 17:33:30 10° SSE 17:38:30 86° ENE 17:43:37 10° NNW
CZ-2D R/B 4.2 17:35:23 10° SE 17:39:02 29° ENE 17:42:42 10° N
Cosmos 2208 Rocket 4.0 17:35:50 10° NNW 17:40:54 54° ENE 17:45:57 10° SE
CENTAUR R/B 3.5 17:36:46 10° WSW 17:42:04 41° NW 17:48:41 10° NNE
Cosmos 2297 Rocket 2.5 17:37:24 10° NNW 17:42:46 42° ENE 17:48:07 10° SE
Cosmos 773 Rocket 4.0 17:39:24 10° NNW 17:44:33 58° ENE 17:49:41 10° SE
UNK 4.5 17:41:22 10° N 17:45:50 53° WNW 17:50:16 10° SSW
USA 215 4.2 17:45:59 18° ENE 17:49:34 30° NNE 17:55:03 10° NW
Cosmos 1656 3.7 17:47:42 10° SSW 17:53:18 87° WNW 17:58:48 11° NNE
Cosmos 405 Rocket 3.3 17:51:59 10° NNW 17:55:09 47° W 17:58:15 10° S
SJ-6F 4.4 17:57:40 10° S 18:01:37 80° W 18:05:36 10° NNW
Cosmos 1626 Rocket 4.4 17:58:53 10° NNW 18:03:06 51° W 18:07:15 10° S
Helios 1A Rocket 3.9 18:04:29 23° SE 18:04:29 23° SE 18:06:17 10° SSE
NOSS 2-2 (D) 4.0 18:04:49 10° WSW 18:08:04 38° NW 18:09:17 26° N
Cosmos 1606 Rocket 3.6 18:04:31 10° S 18:08:47 55° E 18:10:48 29° NNE
Cosmos 1980 Rocket 3.8 18:05:05 10° SE 18:07:09 17° ESE 18:07:09 17° ESE
Okean 1-7 Rocket 3.4 18:05:36 10° N 18:09:59 64° E 18:14:18 10° SSE
Cosmos 1461 3.1 18:06:25 10° S 18:10:04 42° ESE 18:10:10 42° ESE
NOSS 2-2 (E) 3.7 18:08:28 10° SW 18:11:50 45° NW 18:12:46 33° N
Resurs 1-3 3.5 18:09:41 10° SSE 18:13:53 54° ENE 18:18:05 10° N
BlueWalker 3 2.0 18:10:54 10° NW 18:14:18 50° NNE 18:14:18 50° NNE
Cosmos 2360 4.4 18:14:06 10° SSW 18:19:48 74° WNW 18:24:05 19° NNE
CZ-4C R/B 3.0 18:18:03 10° NNW 18:24:58 57° NE 18:29:51 26° ESE
NOSS 3-2 (C) 2.9 18:22:13 10° SW 18:27:08 90° SE 18:29:22 38° NE
Cosmos 1503 Rocket 4.0 18:21:55 10° SSW 18:27:12 85° WNW 18:30:09 27° NNE
SKYMED 2 3.8 18:23:49 16° N 18:27:15 67° WNW 18:31:33 10° SSW
Cosmos 1933 3.2 18:23:51 10° S 18:27:41 81° W 18:28:34 51° N
Cosmos 2263 Rocket 3.6 18:23:07 10° N 18:25:49 21° NNE 18:25:49 21° NNE
USA 290 4.2 18:26:15 10° NNW 18:27:25 20° NNW 18:27:25 20° NNW
NOSS 3-2 (A) 4.2 18:26:08 10° WSW 18:30:50 38° NW 18:34:23 19° NNE
IRAS Rocket 4.1 18:25:24 10° SSE 18:30:53 76° ENE 18:36:22 10° NNW
Cosmos 1354 Rocket 3.9 18:27:26 10° SSW 18:32:41 76° ESE 18:34:18 45° NNE
Cosmos 2227 Rocket 2.4 18:28:04 10° NNW 18:33:08 46° NE 18:33:08 46° NE
Spot 4 Rocket 4.0 18:29:37 10° SSE 18:34:44 85° WSW 18:39:52 10° NNW
Cosmos 1726 Rocket 3.5 18:32:06 10° S 18:36:44 82° E 18:37:32 61° NNE
Cosmos 2151 4.1 18:33:37 10° NNW 18:37:32 42° W 18:41:27 10° SSW
Lacrosse 5 rocket 3.4 18:37:58 10° WNW 18:40:15 15° NNW 18:40:19 15° NNW
BREEZE-M DEB (TANK) 3.8 18:41:01 10° SW 18:43:50 34° SSW 18:43:50 34° SSW
Cosmos 1867 3.9 18:39:32 10° NNW 18:44:08 49° NNE 18:44:08 49° NNE
Gbstr 26 Del rocket 3.9 18:45:39 10° SW 18:48:09 35° SSW 18:48:09 35° SSW
Cosmos 1697 Rocket 2.6 18:46:02 10° SSW 18:51:38 85° WNW 18:52:48 58° NNE
YAOGAN 1 3.2 18:48:25 10° S 18:52:34 53° W 18:56:45 10° NNW
COSMO-SKYMED 1 3.4 18:55:26 42° NW 18:56:04 46° WNW 19:00:00 10° SW
ATLAS CENTAUR R/B 3.7 19:00:16 10° NW 19:00:42 13° NW 19:00:42 13° NW
Cosmos 1607 4.3 19:06:10 10° NW 19:12:17 61° WSW 19:14:51 35° S
USA 238 DEB 4.1 19:20:05 10° SSW 19:24:00 43° SSW 19:24:00 43° SSW
USA 238 4.2 19:20:11 10° SSW 19:24:03 43° SSW 19:24:03 43° SSW
Cosmos 2297 Rocket 4.0 19:21:47 10° NW 19:26:36 29° WSW 19:31:23 10° SSW
USA 215 3.8 19:33:19 47° NNW 19:33:19 47° NNW 19:38:11 10° NW
BREEZE-M DEB (TANK) 4.1 19:36:54 10° WNW 20:17:36 - ESE 19:41:24 83° NNW
Cosmos 1980 Rocket 4.0 19:46:47 10° SW 19:48:58 24° SW 19:48:58 24° SW
CZ-4C R/B 4.0 20:06:27 10° NW 20:13:25 42° WSW 20:14:57 38° SW
Cosmos 2227 Rocket 4.4 20:12:37 10° NW 20:15:00 20° WNW 20:15:00 20° WNW
